Theta_e
310 311 312 313 315 316 313 313 315 316 317 316 316 315 316 317 318 316 316 316 316 317 320 318 316 317 319 321 322 326 326 327 326 325 324 325 325 326 328 326 325 327 327 326 325 321 318 315 316 321 322 322 322 323 323 322 322 322 322 324 324 325 325
312 313 315 314 312 314 313 313 314 314 313 314 315 315 315 315 319 316 314 314 315 316 319 318 316 317 317 316 317 318 321 325 326 326 324 324 325 325 326 324 325 324 326 327 327 325 320 317 315 317 318 321 322 321 322 323 322 322 323 324 325 325 325
314 313 312 311 312 311 312 312 312 312 313 312 313 314 314 315 315 315 315 314 314 315 319 316 316 316 316 316 317 317 318 319 323 325 325 326 326 326 326 326 324 324 323 323 323 323 322 321 317 315 318 318 317 319 322 321 322 323 323 324 324 324 324
312 311 310 310 311 309 311 310 312 312 314 313 314 312 311 314 313 316 314 314 315 316 317 315 315 315 316 316 317 317 316 316 317 321 324 325 326 326 327 326 325 324 323 321 320 322 321 319 318 318 318 319 319 319 321 324 323 324 324 324 324 323 323
312 311 310 308 311 309 311 311 310 312 309 314 313 312 312 313 314 313 315 314 314 313 313 314 315 316 315 315 315 315 316 316 317 319 320 322 324 324 324 325 325 325 325 324 324 324 322 320 318 317 317 318 320 321 322 323 325 324 323 323 324 324 322
312 311 311 308 312 310 310 310 310 308 310 312 310 310 313 312 313 311 312 312 312 313 314 313 313 314 314 313 313 313 314 314 315 315 315 317 321 323 324 325 326 326 325 326 326 324 323 322 321 318 319 324 318 319 322 324 321 323 323 323 323 324 323
312 312 311 312 311 311 310 309 310 308 309 309 311 309 311 312 312 313 312 311 311 311 312 311 311 311 312 313 313 312 312 313 314 314 315 315 316 319 323 324 325 327 326 326 326 325 323 320 320 320 319 319 322 319 322 323 326 321 321 322 323 323 323
312 312 311 313 312 311 311 311 310 309 308 308 308 309 312 309 310 310 311 311 310 310 310 309 311 309 310 311 312 312 313 313 314 314 314 315 316 316 317 321 323 324 325 327 327 326 326 323 322 321 319 316 315 316 316 320 324 322 321 323 326 321 322
314 313 312 312 312 311 310 310 309 309 309 309 309 309 311 310 309 309 311 310 310 309 309 309 309 309 309 309 309 310 309 313 312 312 313 313 314 314 315 317 320 323 325 326 326 327 327 326 324 322 321 319 315 312 314 314 317 319 324 321 324 325 322
312 311 310 309 311 311 310 309 309 309 309 308 310 310 309 309 309 309 308 308 308 308 307 308 308 307 307 307 307 307 307 309 310 310 311 311 312 313 314 315 317 320 323 324 325 325 326 325 325 324 323 320 318 314 312 312 313 314 320 323 320 324 326
311 311 310 309 310 310 309 309 308 308 307 308 309 311 309 309 308 313 308 307 307 307 307 306 306 306 306 306 305 306 307 307 307 308 309 310 310 311 312 313 315 316 321 323 323 324 324 325 325 325 324 323 321 317 316 313 313 317 318 321 323 322 324
310 310 310 310 310 309 309 308 307 308 307 308 308 307 307 307 306 307 306 305 305 305 305 305 305 305 305 304 304 306 305 305 305 306 307 309 310 311 311 312 313 314 317 321 323 323 323 324 324 324 324 323 321 321 318 316 313 317 321 318 320 323 325
310 310 309 310 309 309 309 309 308 307 307 308 306 307 306 306 306 304 305 304 304 304 304 304 304 303 303 303 303 305 304 304 304 304 305 306 307 308 309 310 312 313 315 317 321 323 324 324 323 323 323 323 323 323 321 319 316 316 320 320 320 322 326
309 309 309 309 309 308 308 309 308 307 307 306 305 305 305 305 305 304 303 304 303 302 302 302 302 302 302 302 302 302 302 303 303 304 305 305 306 306 307 308 310 312 314 314 316 320 322 323 323 323 323 323 322 323 322 320 318 317 319 321 321 321 325
309 309 308 308 308 308 307 307 306 306 305 305 305 305 305 304 304 304 302 302 301 301 302 301 301 301 301 301 300 303 303 302 302 303 303 303 304 306 306 306 307 309 311 312 313 315 318 322 322 321 322 323 323 323 324 321 319 318 317 318 320 321 322
309 308 308 307 307 308 307 306 307 305 304 304 305 305 304 304 304 303 302 302 301 300 301 300 300 301 301 300 300 300 302 301 302 302 302 303 304 305 304 304 305 306 309 309 310 312 314 315 320 321 321 322 322 323 323 323 321 319 318 318 320 319 320
308 308 307 307 307 307 307 306 307 306 306 305 305 305 304 303 303 302 302 301 300 300 300 300 300 300 301 300 300 301 301 302 302 302 302 302 303 304 304 304 304 305 306 307 308 310 312 313 315 319 320 321 321 322 322 323 322 321 320 319 319 320 319
308 307 307 307 307 307 306 306 306 305 305 304 304 303 303 304 302 302 301 301 300 299 300 300 300 300 300 301 302 302 303 303 303 303 303 303 304 304 304 304 304 304 305 305 306 308 309 310 312 313 316 320 319 320 322 322 322 322 320 319 319 319 320
307 307 307 306 306 306 306 306 305 305 305 303 302 302 302 301 302 301 300 300 300 300 300 300 300 300 301 302 303 304 304 303 304 303 303 303 303 304 304 304 305 305 305 304 305 307 308 309 311 312 313 315 319 319 318 320 321 321 321 319 319 318 319
307 307 307 306 307 306 306 305 304 303 303 302 301 301 300 300 300 300 300 300 300 300 300 301 301 301 302 302 302 302 302 303 303 303 303 303 303 303 303 304 304 305 305 305 305 305 306 307 308 310 311 313 315 318 318 317 318 318 319 319 319 320 318
307 307 307 306 306 306 305 304 303 302 303 300 300 300 299 299 298 300 299 300 300 300 300 299 299 300 301 301 301 301 301 301 301 302 303 303 303 303 303 303 303 303 303 304 304 305 305 305 306 306 307 310 312 313 315 317 316 317 317 318 318 318 317
307 307 307 306 305 304 303 302 302 301 300 300 301 300 299 299 298 298 298 299 298 299 300 301 302 302 302 302 303 302 302 302 302 302 302 302 303 303 303 303 304 304 305 305 303 302 302 302 303 302 303 304 305 306 308 312 316 316 316 316 316 317 315
307 306 305 304 303 302 302 301 300 299 299 299 298 299 298 298 298 298 297 297 297 298 299 299 301 299 298 300 300 300 301 301 301 301 301 301 301 301 302 302 303 304 302 302 301 299 298 298 300 302 302 302 302 302 304 306 309 313 315 314 314 315 314
305 305 303 302 301 301 301 301 299 299 299 298 298 297 298 297 296 296 296 296 295 297 298 299 297 294 294 295 297 298 298 298 298 298 299 299 299 300 300 301 301 302 302 301 301 299 297 297 297 297 298 299 301 302 301 302 304 308 311 314 316 315 313
303 303 302 301 301 301 300 299 298 297 297 297 297 297 297 296 295 295 296 295 294 295 296 298 295 295 294 294 295 297 296 296 296 296 296 297 297 298 298 299 300 301 301 301 301 301 300 298 297 296 296 296 296 296 297 301 303 304 306 309 311 313 316
302 302 301 301 301 300 299 297 296 296 296 296 296 296 295 295 295 294 295 294 293 295 295 296 294 294 294 294 294 295 295 295 295 295 295 295 296 296 297 297 298 299 301 301 303 301 300 300 298 297 298 298 298 297 296 295 296 303 306 307 308 310 313
301 300 300 300 299 298 296 295 294 295 296 296 295 294 294 294 293 293 293 293 294 294 295 296 294 294 294 293 293 293 296 296 296 296 295 295 295 295 295 296 296 297 298 300 300 300 300 300 299 299 300 301 304 304 299 298 296 295 299 305 307 307 311
299 299 299 298 297 295 295 293 294 294 295 293 292 293 293 292 292 294 292 292 292 294 296 295 293 293 293 292 292 292 294 295 295 295 295 295 295 295 295 296 296 296 297 298 299 299 299 299 299 298 298 298 299 300 302 305 308 306 301 302 305 307 310
299 298 297 296 295 294 294 294 294 294 293 291 292 291 291 292 292 291 292 291 292 292 293 293 292 292 292 291 292 293 294 293 293 293 293 293 294 295 295 296 295 295 296 296 296 295 296 298 298 297 297 297 297 298 300 301 300 302 306 307 305 306 309
298 297 296 295 294 294 293 294 293 292 290 290 290 290 290 291 291 290 290 291 291 292 292 293 292 292 292 292 292 293 292 292 291 291 291 292 293 293 294 294 294 294 295 295 295 293 293 294 296 296 296 296 296 297 297 300 299 299 299 298 299 300 300
297 297 295 295 294 293 293 292 292 292 291 289 289 290 291 290 290 290 290 291 292 292 292 293 293 292 292 291 292 291 291 290 290 290 291 292 292 292 293 296 297 295 294 295 294 293 292 294 295 296 296 295 295 295 296 298 301 303 301 301 300 297 298
296 295 294 293 293 292 292 292 291 291 290 289 289 289 291 289 289 289 290 291 296 294 292 293 293 291 291 291 292 291 291 290 289 289 290 290 291 291 292 294 295 295 295 295 293 292 292 294 295 296 296 295 295 294 295 297 298 301 306 308 310 308 302
295 295 294 293 292 293 292 291 290 290 289 289 288 288 289 288 288 289 290 291 292 292 292 292 293 292 292 291 292 292 291 289 289 289 290 290 290 291 292 292 294 292 291 291 291 291 292 292 294 296 296 295 295 294 297 298 299 301 302 302 303 307 309
296 295 294 293 293 293 292 291 290 289 289 288 288 288 287 288 288 289 290 290 290 291 292 291 292 292 291 291 291 291 290 290 290 290 289 289 289 290 290 291 293 293 292 291 291 291 291 291 292 295 295 295 296 296 296 296 297 296 299 299 300 302 305
297 297 294 294 293 291 291 291 291 289 289 288 287 287 286 287 287 288 288 289 289 290 292 293 291 292 291 291 291 291 290 290 290 290 289 288 289 289 290 291 291 292 291 291 291 291 291 291 291 294 295 293 293 292 295 296 296 296 297 298 298 300 302
296 298 295 294 292 290 291 290 290 289 288 287 287 286 285 286 286 287 287 288 288 289 289 290 292 291 291 290 290 290 290 289 289 289 288 287 288 289 290 290 292 292 290 291 291 291 291 291 291 293 292 292 292 291 292 295 294 294 295 295 296 297 299
296 295 293 292 292 289 289 289 290 290 287 286 285 285 285 287 285 285 287 287 288 288 288 289 290 290 290 289 289 289 289 288 288 289 289 288 289 289 289 290 290 290 290 290 290 290 291 291 292 291 291 291 291 291 294 294 293 294 293 294 294 296 298
Wind_Speed
6 5 4 3 4 4 4 3 2 2 1 3 3 2 1 0 1 3 3 3 3 4 4 4 3 3 4 3 3 3 4 4 5 6 6 5 5 5 5 5 5 6 7 6 5 4 3 5 7 3 5 6 7 9 10 9 9 10 9 8 9 9 8
6 6 4 4 4 4 4 3 2 1 2 1 3 3 2 1 0 1 2 3 3 4 3 5 4 4 4 5 6 6 4 2 3 5 4 5 4 7 5 4 8 8 6 6 6 5 6 5 6 7 7 5 4 6 8 9 9 9 9 10 10 10 8
5 4 5 4 4 4 4 4 2 2 2 2 1 3 2 2 1 0 0 1 2 3 3 4 4 5 4 4 3 4 5 5 4 4 6 6 6 6 6 6 6 6 7 7 6 7 8 8 8 6 4 4 7 6 6 8 9 8 8 9 9 10 9
6 6 5 4 4 4 4 4 4 4 3 5 3 3 2 1 2 1 0 0 1 2 3 5 4 4 4 4 4 4 4 5 6 5 5 5 6 6 6 7 8 8 8 8 7 6 7 6 6 9 10 8 5 5 5 7 8 9 7 7 9 9 9
7 6 7 7 6 5 4 5 4 3 3 3 4 3 3 4 3 3 2 2 1 2 3 4 5 5 4 3 5 6 6 5 5 6 5 5 5 5 5 5 7 7 8 8 8 8 7 7 6 8 7 5 7 4 2 2 3 5 7 6 7 9 8
6 7 7 7 6 6 5 5 4 4 3 3 4 3 3 3 3 2 1 1 1 1 2 2 3 4 6 7 6 5 5 5 5 5 6 6 5 5 6 5 6 7 8 7 7 6 5 4 6 8 8 4 6 3 2 0 1 2 3 5 5 6 7
6 6 6 7 6 6 6 5 5 5 5 4 3 4 3 3 2 2 2 1 0 1 2 3 3 3 4 4 5 7 6 5 5 5 6 6 5 5 5 6 5 7 8 8 8 7 7 7 8 9 7 3 3 6 2 0 2 4 4 4 5 7 8
7 6 5 6 6 6 5 6 5 4 4 3 3 2 2 2 2 1 0 0 1 2 2 3 3 3 3 3 3 5 6 6 6 6 6 7 7 6 6 5 6 6 7 7 7 9 7 8 9 7 5 7 6 5 5 3 3 6 6 4 4 3 7
5 5 5 4 5 6 5 6 5 4 4 3 2 2 2 3 3 2 1 1 2 2 3 2 2 2 3 4 5 5 6 5 7 7 7 7 7 7 7 7 6 7 7 7 7 7 8 8 7 7 8 8 8 9 6 6 4 6 5 5 5 6 4
6 6 6 5 6 5 5 4 4 4 3 3 2 2 1 1 2 2 1 2 2 3 3 3 3 3 3 3 4 4 4 4 5 6 6 7 7 7 7 8 8 7 7 7 7 7 7 7 7 8 8 10 10 10 9 9 7 5 4 6 5 5 7
7 6 6 6 5 6 4 4 3 3 3 3 2 2 1 1 1 1 2 3 4 4 4 4 4 4 3 3 3 3 3 3 4 5 6 7 8 8 8 8 8 9 7 7 7 7 7 7 9 8 6 7 8 10 10 10 9 6 5 4 6 6 4
6 6 5 5 5 6 5 4 4 4 3 3 3 2 1 1 2 3 3 3 2 2 2 3 3 3 3 3 3 4 3 3 4 5 5 6 7 7 8 10 9 9 9 8 8 7 7 7 7 6 8 8 8 9 10 8 9 6 6 8 5 5 3
6 6 5 6 6 6 5 5 4 4 4 3 3 2 2 3 3 4 3 3 2 2 2 2 2 3 3 3 3 3 3 3 4 5 6 5 7 8 9 10 9 8 8 8 8 7 8 7 7 8 8 8 8 8 8 9 10 12 6 7 6 4 2
7 6 5 5 6 5 4 4 5 4 3 4 3 3 3 4 4 4 4 4 4 4 4 4 3 3 2 3 3 3 3 3 4 5 4 6 5 7 9 10 10 9 8 9 7 7 7 7 7 8 8 8 8 7 8 9 11 11 9 5 6 4 3
7 6 6 5 6 5 4 4 4 4 4 4 3 4 4 4 4 4 4 4 4 4 4 4 4 3 3 3 3 3 4 4 5 5 5 7 8 7 7 9 10 10 10 10 9 9 8 7 8 8 8 8 9 9 8 9 10 10 14 4 7 3 4
7 7 7 6 5 5 4 4 4 4 4 4 3 4 4 4 4 4 4 4 3 3 3 3 2 2 3 3 4 4 4 4 5 6 6 8 9 9 9 9 10 10 9 10 10 10 9 9 8 9 10 8 9 10 9 10 10 11 12 11 6 6 5
8 7 7 6 6 5 4 4 4 4 4 4 4 4 4 4 3 4 4 3 3 3 3 3 3 3 4 4 4 5 4 5 6 7 8 9 9 9 9 9 9 9 9 10 10 10 10 9 9 8 8 10 9 11 10 9 11 10 10 11 6 9 7
8 7 7 6 6 5 5 5 4 4 4 4 4 3 2 1 1 1 3 3 4 3 3 3 3 4 4 4 4 5 5 6 6 7 8 9 9 10 10 11 11 10 10 11 11 10 10 11 10 10 10 8 8 10 9 9 10 9 11 12 9 6 7
8 8 7 6 6 6 5 5 4 4 4 4 3 2 1 1 1 3 2 2 2 3 3 3 4 4 4 3 4 6 7 8 8 8 8 9 9 8 8 9 9 9 10 10 10 11 10 11 10 11 11 10 8 8 10 10 9 10 11 11 9 6 5
8 7 7 6 6 5 5 4 4 4 3 3 2 1 1 1 2 1 2 2 3 4 4 4 4 4 4 4 5 6 6 7 7 7 8 9 10 10 9 9 9 9 10 10 11 12 12 12 10 11 11 11 10 8 7 8 9 10 10 11 10 10 8
8 7 7 6 5 5 5 4 4 4 3 3 1 1 1 2 3 2 2 2 2 2 3 4 4 5 5 6 6 7 8 8 9 9 9 9 9 10 10 11 11 11 12 11 11 11 11 12 10 11 11 11 11 10 9 8 8 9 10 10 10 10 9
6 7 7 6 5 5 5 5 4 4 3 2 2 2 2 2 2 2 1 1 2 2 3 4 3 4 6 7 7 8 8 8 9 10 10 9 8 8 8 8 9 9 11 14 15 14 15 14 12 13 13 11 12 12 13 10 7 7 7 7 9 8 7
7 6 6 6 6 5 5 4 4 4 4 3 3 4 4 4 2 1 0 1 1 2 2 3 5 10 9 6 7 7 8 8 9 9 10 11 11 11 12 11 11 15 14 14 14 15 16 16 17 14 14 13 13 12 12 12 12 9 7 9 8 8 8
7 7 6 6 5 5 5 5 4 4 4 4 4 4 4 3 1 1 1 2 2 2 3 3 8 8 9 10 7 6 7 8 8 9 10 10 11 11 11 11 11 14 17 17 16 15 14 17 18 19 21 22 19 14 13 13 13 12 11 10 7 7 9
7 7 6 6 5 6 5 5 4 4 3 2 2 2 2 2 1 1 1 1 2 3 3 6 9 10 11 10 8 8 8 8 8 9 9 11 11 11 12 11 11 9 11 12 12 13 15 17 16 17 18 19 19 21 18 15 14 13 13 11 11 11 8
7 7 6 6 6 6 5 4 4 3 2 3 2 2 1 1 1 1 1 3 4 4 4 7 10 12 11 12 13 12 9 9 9 9 9 10 11 11 11 12 12 10 10 14 13 12 11 12 15 19 20 20 21 21 21 20 20 18 14 13 13 13 12
7 6 6 6 6 5 5 5 4 3 2 1 1 2 0 0 1 1 2 4 4 4 5 7 12 12 13 14 15 13 9 10 10 10 11 11 10 11 11 12 12 12 11 11 11 11 10 11 12 13 15 15 13 14 17 21 21 22 21 16 15 16 15
6 5 5 5 5 4 4 3 3 3 3 2 2 0 0 1 2 2 3 4 4 5 4 9 11 11 11 12 12 10 7 7 8 10 10 10 11 12 12 12 13 14 13 13 12 13 13 13 13 13 15 16 17 16 15 14 11 10 11 13 15 16 16
6 5 5 4 4 4 3 4 4 0 2 3 2 2 2 1 2 3 4 4 5 6 5 9 10 10 10 10 11 7 7 8 9 9 10 10 11 12 12 13 13 14 14 14 16 18 17 14 14 16 16 16 16 16 16 15 16 17 13 11 13 15 15
5 5 4 4 4 4 3 1 3 3 4 3 3 3 1 1 2 3 4 4 5 5 5 7 10 12 13 14 10 7 7 8 8 10 10 10 11 12 13 13 13 14 14 15 16 17 17 16 15 17 17 16 14 14 17 15 16 18 19 18 18 20 22
5 4 4 3 2 3 3 3 2 3 5 4 3 1 1 1 2 3 4 5 5 7 8 9 12 13 13 13 10 8 7 8 9 10 11 11 11 12 13 21 23 17 16 16 16 17 17 15 15 15 15 15 16 16 16 13 11 12 17 19 18 18 21
5 4 4 4 4 3 3 3 3 5 5 3 2 1 0 1 2 3 4 5 9 10 9 10 12 12 12 12 11 8 8 8 11 11 12 13 12 12 13 14 21 20 18 18 20 19 19 16 15 15 15 15 16 18 15 10 13 14 11 10 10 9 10
5 5 5 5 4 3 2 3 5 4 4 3 2 1 1 3 4 4 4 5 6 7 9 9 10 14 13 13 12 10 9 10 12 13 13 13 14 12 12 13 15 18 21 22 22 23 22 21 17 15 14 15 16 18 9 10 13 12 12 12 12 13 12
7 5 4 4 3 2 2 3 4 4 4 3 3 2 4 4 4 4 5 6 6 7 8 10 10 14 14 14 15 14 10 11 12 12 13 13 13 13 12 11 10 14 18 21 22 23 23 23 22 18 17 17 17 13 9 11 13 15 14 14 13 12 13
7 6 4 2 2 3 3 4 5 5 4 4 3 4 4 4 4 5 6 6 6 8 8 12 11 13 15 16 16 17 12 11 12 13 15 14 14 13 12 12 11 13 17 19 20 22 23 22 24 18 19 22 21 19 17 14 12 11 12 12 11 12 12
5 3 3 4 4 4 4 5 4 4 4 4 4 4 4 4 4 6 6 7 7 8 8 8 13 12 15 17 17 16 17 15 17 17 15 16 15 15 14 14 14 18 20 21 21 20 20 22 20 18 22 21 21 21 18 13 12 12 12 12 12 13 13
4 4 4 3 4 4 4 4 6 6 5 4 3 3 4 4 4 6 8 9 8 8 7 7 10 14 14 17 17 18 19 20 20 15 15 15 15 15 14 13 14 19 21 21 22 22 21 21 17 20 19 21 21 19 14 13 13 12 11 11 12 13 13
Wind_Direction
163 167 158 150 144 139 135 162 173 198 170 170 177 174 183 127 12 10 25 27 8 349 354 347 324 311 327 331 323 279 251 219 198 214 243 233 227 250 229 237 258 267 258 253 240 228 241 290 292 280 245 236 221 220 217 217 212 206 194 199 198 197 188
157 159 156 147 138 141 136 163 136 211 132 104 157 175 175 177 213 29 31 3 356 344 345 339 340 341 337 332 331 333 323 257 214 242 249 247 225 245 254 240 234 236 252 247 250 241 240 246 269 257 251 243 236 240 226 218 211 204 197 201 204 203 193
149 158 142 154 153 151 151 177 190 189 192 199 202 135 172 193 141 100 13 354 338 333 336 331 328 332 336 344 348 344 337 322 285 231 223 234 235 244 233 242 247 254 241 247 238 236 241 233 246 273 287 251 246 244 226 229 219 205 200 203 209 206 197
168 157 151 164 162 157 166 189 184 214 186 197 186 165 162 167 157 143 158 329 333 324 324 315 307 308 317 330 330 338 336 332 325 301 265 241 233 235 238 233 238 232 239 237 239 230 224 227 230 249 257 261 240 269 262 229 223 218 202 195 202 207 199
166 164 166 174 173 178 180 186 201 171 191 164 176 175 192 201 171 179 183 199 237 265 276 285 299 310 319 336 336 329 321 322 322 326 315 289 256 249 242 239 244 240 240 236 232 237 226 236 239 252 248 249 258 236 282 339 272 242 235 210 203 200 194
168 170 164 177 180 175 175 175 182 198 207 186 199 183 205 177 140 123 120 198 302 314 317 330 326 333 333 329 324 313 308 310 311 316 311 300 291 269 256 233 232 251 254 249 245 229 225 243 236 253 250 228 240 275 285 328 295 297 239 235 215 211 199
171 169 172 175 179 171 172 183 184 187 179 190 178 167 162 140 122 135 118 127 152 3 356 353 346 341 337 323 314 314 309 303 308 303 296 294 289 274 268 265 248 237 240 248 253 247 228 212 230 236 246 237 217 246 277 42 292 284 296 254 228 208 206
172 173 182 169 168 167 183 183 186 176 158 187 163 202 166 146 157 130 125 47 350 326 317 313 311 321 320 325 319 320 317 317 312 309 302 303 302 304 295 270 255 249 247 243 241 249 241 227 222 218 203 239 259 248 248 236 226 218 243 282 265 246 224
169 167 178 164 174 172 176 165 179 166 166 150 152 126 151 146 149 166 161 219 244 249 252 246 260 294 304 303 297 297 301 309 311 309 303 305 304 303 300 297 282 261 246 242 237 239 242 244 233 227 222 226 243 261 243 249 223 246 216 236 272 254 226
171 177 183 179 177 174 159 152 152 174 154 148 144 130 144 148 163 164 192 227 244 242 239 234 226 230 239 265 276 281 283 296 304 308 313 309 306 306 303 299 292 284 266 251 245 238 241 243 246 233 220 222 215 234 258 261 249 241 261 205 239 247 248
178 181 179 180 171 156 149 143 139 131 157 171 162 195 154 144 148 193 214 246 259 268 262 261 256 248 234 234 241 258 270 290 299 302 303 305 301 302 295 295 295 291 280 262 252 243 235 231 231 235 243 228 200 217 225 239 255 207 251 234 207 243 256
177 178 180 170 164 157 158 158 157 186 192 177 154 144 160 220 242 248 230 224 235 256 263 254 243 236 226 242 247 250 258 273 282 284 291 299 300 297 291 286 286 285 286 276 259 250 243 240 239 226 230 232 232 219 222 233 253 239 198 246 244 227 218
175 174 172 161 165 160 166 163 179 177 189 170 164 172 185 209 221 233 233 225 227 244 263 275 273 275 279 271 266 273 270 270 272 275 283 286 294 297 299 295 290 285 290 292 281 260 249 235 229 231 232 237 240 224 218 233 236 254 209 221 224 241 183
178 170 170 159 161 170 164 172 178 187 171 184 176 198 216 225 232 225 223 225 231 237 241 253 252 245 250 262 270 267 275 273 275 276 274 280 280 289 293 294 295 295 295 291 289 284 272 260 241 225 222 226 229 234 229 225 234 248 255 201 227 202 194
171 170 169 166 167 167 173 174 181 162 173 205 176 209 221 226 217 222 233 242 242 241 238 235 242 230 240 259 276 274 284 282 280 280 286 289 288 285 288 295 299 302 302 296 296 294 291 270 253 250 236 224 229 229 221 230 231 236 254 213 228 219 194
170 172 167 175 170 174 175 182 175 176 191 211 216 211 228 240 246 235 230 235 232 238 238 245 249 237 245 249 259 265 259 270 277 285 287 286 288 289 285 281 285 293 295 297 296 293 294 294 283 262 252 232 228 228 220 218 227 234 244 248 202 217 197
169 169 173 172 173 177 178 184 186 184 201 201 217 238 229 232 233 240 245 256 254 253 254 249 252 236 240 245 252 258 261 261 266 271 275 279 281 284 283 287 287 289 294 292 293 293 292 290 291 284 264 259 249 231 221 216 218 231 240 254 211 206 203
170 170 171 168 174 179 184 190 187 191 194 210 223 231 269 279 278 272 262 261 268 267 260 259 258 263 260 255 257 263 267 267 264 265 267 270 274 275 280 283 287 290 293 294 293 292 290 289 288 287 285 267 251 253 242 219 219 219 235 241 240 210 191
170 169 167 169 174 179 182 183 189 197 188 204 228 239 240 305 303 297 307 311 318 312 306 298 287 278 272 271 276 279 277 274 272 270 270 274 278 278 281 283 285 284 281 279 285 289 292 291 290 286 286 284 270 254 256 252 226 216 223 234 241 240 230
165 167 168 172 174 175 178 181 178 193 198 195 192 217 253 292 297 284 281 295 301 297 297 293 292 285 284 283 283 286 287 287 286 282 276 272 270 270 270 270 272 275 278 279 280 284 292 295 294 292 289 287 287 277 260 256 255 238 221 226 235 233 224
160 165 169 170 173 176 177 180 186 198 177 166 187 211 251 263 267 280 287 307 308 316 313 314 307 300 289 285 282 277 278 278 279 278 276 271 270 269 267 264 263 267 269 274 280 284 287 291 301 301 303 312 309 303 285 258 245 247 238 224 227 229 224
157 161 165 166 169 175 173 181 185 176 165 176 185 213 222 216 242 273 308 332 335 338 335 319 312 307 307 302 297 293 290 286 283 282 280 278 276 277 279 276 271 265 261 260 262 265 269 274 284 288 290 292 294 299 302 301 283 261 259 250 238 230 228
161 158 157 164 167 170 178 190 186 183 194 200 221 238 238 246 244 183 125 307 312 318 307 300 303 307 309 308 309 307 304 301 299 296 292 289 282 277 274 276 277 282 287 284 275 267 265 265 264 267 279 284 282 284 285 290 287 280 264 251 246 237 230
157 159 161 155 168 173 192 189 187 196 206 217 223 223 221 220 178 197 233 253 275 279 276 274 282 286 297 306 307 299 297 295 295 292 291 288 287 284 279 274 272 272 272 275 278 275 268 264 265 264 263 266 266 260 270 269 271 275 275 272 265 243 229
149 153 152 167 177 190 188 192 205 202 196 212 240 233 212 184 203 249 254 260 265 263 256 259 268 272 276 279 280 287 290 291 288 287 286 285 285 286 285 283 277 274 267 265 264 269 276 281 282 278 271 264 264 265 251 245 258 264 258 263 264 261 256
149 157 171 179 186 188 189 186 174 169 213 228 241 256 171 126 234 265 283 285 277 270 267 262 263 264 263 262 266 269 273 271 274 274 274 275 277 279 281 281 281 274 272 266 265 264 263 267 275 284 286 279 266 257 261 251 237 242 258 251 255 258 254
158 169 176 178 181 185 179 183 189 190 206 249 180 140 176 298 307 293 275 271 274 274 274 274 271 269 265 264 266 270 276 278 279 277 276 275 274 273 271 273 275 273 271 270 264 262 259 261 265 269 274 278 280 271 255 250 244 234 233 242 245 247 247
154 161 165 172 175 182 173 170 170 199 205 189 132 158 173 351 325 314 304 298 295 290 281 283 283 281 280 280 281 282 275 275 276 278 277 275 273 271 271 268 267 267 267 267 266 266 267 266 266 266 268 274 279 283 288 288 274 244 229 229 236 240 245
146 159 170 170 171 175 175 185 207 212 89 98 82 76 26 47 331 317 304 306 301 293 289 290 295 300 297 289 279 271 268 270 275 276 277 276 274 273 272 269 269 266 265 262 261 259 260 263 265 264 263 262 268 276 277 271 274 284 274 241 227 230 234
152 168 171 163 171 187 194 96 103 122 103 106 98 79 59 334 310 306 302 301 300 293 293 295 299 298 295 292 289 282 283 284 282 282 278 279 276 274 271 268 265 266 264 263 259 254 254 252 259 259 259 260 260 264 269 275 278 279 280 271 251 240 231
155 176 157 157 139 112 129 128 146 140 115 113 87 71 306 330 303 295 299 300 294 299 295 292 293 294 293 291 287 288 287 287 285 284 284 278 278 276 272 269 271 268 265 262 259 253 250 245 252 253 255 257 258 256 262 272 280 273 272 274 269 250 241
131 122 116 132 133 123 124 136 130 93 109 116 139 180 180 269 266 271 268 276 285 288 287 285 281 280 281 285 288 289 290 291 291 288 286 284 279 278 277 272 268 264 262 262 258 253 246 241 249 250 251 253 254 253 254 267 272 275 284 295 290 280 257
123 109 102 94 90 115 133 88 100 125 138 144 162 191 214 235 249 261 266 271 275 274 281 282 280 277 274 275 279 287 290 292 289 288 285 284 286 278 276 275 268 260 257 256 254 251 247 241 245 248 248 248 249 253 253 258 262 272 287 289 296 302 290
105 109 122 133 132 140 163 138 142 138 159 170 167 219 240 240 251 264 263 263 267 274 276 284 285 282 280 279 281 285 284 281 283 283 285 283 282 282 279 273 270 258 251 249 247 245 242 239 238 241 242 246 245 259 262 257 262 275 278 284 289 292 292
123 133 141 139 175 211 222 150 164 158 177 176 198 230 243 259 262 269 274 275 274 277 281 285 292 290 288 285 282 280 280 278 280 286 285 282 280 275 271 272 270 268 264 256 248 243 239 236 234 236 241 244 251 250 249 251 258 258 264 271 278 282 284
127 134 173 175 174 206 225 153 174 167 175 194 208 233 263 272 281 288 289 283 281 283 287 290 288 290 289 287 284 283 280 282 282 282 280 280 277 275 274 271 269 268 266 266 262 252 244 239 236 238 240 243 245 245 247 249 248 250 256 262 265 270 271
148 153 160 162 176 203 239 162 172 180 183 179 201 257 285 302 309 297 294 297 295 290 288 287 289 289 291 289 287 284 283 280 278 274 274 276 276 273 272 268 268 266 265 262 261 257 249 242 240 240 239 239 240 240 242 242 241 242 249 255 256 254 256